Tiempo cada hora Alicun

Hoy, 3 Agosto, Martes

Tiempo Temperatura Precipitaciones Viento Presión Humedad
00:00 +20°C° 0 mm 1 mps 697 mmHg 69%
01:00 +20°C° 0 mm 1 mps 697 mmHg 71%
02:00 +20°C° 0 mm 1 mps 697 mmHg 73%
03:00 +19°C° 0 mm 1 mps 697 mmHg 74%
04:00 +19°C° 0 mm 1 mps 697 mmHg 73%
05:00 +19°C° 0 mm 1 mps 698 mmHg 73%
06:00 +20°C° 0 mm 1 mps 698 mmHg 72%
07:00 +22°C° 0 mm 1 mps 698 mmHg 63%
08:00 +24°C° 0 mm 1 mps 699 mmHg 54%
09:00 +26°C° 0 mm 1 mps 699 mmHg 45%
10:00 +28°C° 0 mm 1 mps 699 mmHg 39%
11:00 +29°C° 0 mm 1 mps 699 mmHg 32%
12:00 +31°C° 0 mm 2 mps 699 mmHg 26%
13:00 +32°C° 0 mm 2 mps 698 mmHg 24%
14:00 +32°C° 0 mm 2 mps 698 mmHg 22%
15:00 +34°C° 0 mm 2 mps 697 mmHg 20%
16:00 +34°C° 0 mm 2 mps 697 mmHg 20%
17:00 +34°C° 0 mm 3 mps 697 mmHg 20%
18:00 +34°C° 0 mm 3 mps 697 mmHg 21%
19:00 +30°C° 0 mm 3 mps 697 mmHg 26%
20:00 +28°C° 0 mm 2 mps 697 mmHg 32%
21:00 +25°C° 0 mm 2 mps 698 mmHg 38%
22:00 +25°C° 0 mm 1 mps 697 mmHg 42%
23:00 +24°C° 0 mm 1 mps 697 mmHg 46%

Mañana, 4 Agosto, Miércoles

Tiempo Temperatura Precipitaciones Viento Presión Humedad
00:00 +23°C° 0 mm 1 mps 697 mmHg 51%
01:00 +23°C° 0 mm 1 mps 697 mmHg 53%
02:00 +22°C° 0 mm 1 mps 697 mmHg 55%
03:00 +21°C° 0 mm 2 mps 697 mmHg 58%
04:00 +22°C° 0 mm 1 mps 697 mmHg 58%
05:00 +22°C° 0 mm 1 mps 697 mmHg 57%
06:00 +22°C° 0 mm 1 mps 697 mmHg 57%
07:00 +24°C° 0 mm 1 mps 697 mmHg 50%
08:00 +26°C° 0 mm 1 mps 698 mmHg 43%
09:00 +28°C° 0 mm 1 mps 698 mmHg 35%
10:00 +29°C° 0 mm 2 mps 698 mmHg 31%
11:00 +31°C° 0 mm 3 mps 698 mmHg 28%
12:00 +33°C° 0 mm 3 mps 698 mmHg 24%
13:00 +34°C° 0 mm 4 mps 698 mmHg 22%
14:00 +35°C° 0 mm 5 mps 698 mmHg 21%
15:00 +36°C° 0 mm 5 mps 698 mmHg 19%
16:00 +35°C° 0 mm 5 mps 698 mmHg 20%
17:00 +34°C° 0 mm 4 mps 698 mmHg 21%
18:00 +34°C° 0 mm 4 mps 698 mmHg 22%
19:00 +31°C° 0 mm 3 mps 698 mmHg 25%
20:00 +29°C° 0 mm 2 mps 698 mmHg 29%
21:00 +27°C° 0 mm 1 mps 698 mmHg 32%
22:00 +26°C° 0 mm 1 mps 698 mmHg 33%
23:00 +26°C° 0 mm 2 mps 698 mmHg 34%

Pasado mañana, 5 Agosto, Jueves

Tiempo Temperatura Precipitaciones Viento Presión Humedad
00:00 +25°C° 0 mm 2 mps 698 mmHg 35%
01:00 +24°C° 0 mm 1 mps 698 mmHg 37%
02:00 +24°C° 0 mm 1 mps 698 mmHg 39%
03:00 +23°C° 0 mm 1 mps 698 mmHg 41%
04:00 +23°C° 0 mm 1 mps 698 mmHg 42%
05:00 +23°C° 0 mm 1 mps 698 mmHg 43%
06:00 +23°C° 0 mm 1 mps 698 mmHg 43%
07:00 +26°C° 0 mm 1 mps 698 mmHg 37%
08:00 +28°C° 0 mm 1 mps 699 mmHg 32%
09:00 +31°C° 0 mm 1 mps 699 mmHg 26%
10:00 +32°C° 0 mm 1 mps 699 mmHg 23%
11:00 +35°C° 0 mm 2 mps 699 mmHg 20%
12:00 +37°C° 0 mm 3 mps 699 mmHg 17%
13:00 +37°C° 0 mm 4 mps 698 mmHg 16%
14:00 +38°C° 0 mm 4 mps 698 mmHg 15%
15:00 +40°C° 0 mm 5 mps 698 mmHg 14%
16:00 +39°C° 0 mm 5 mps 697 mmHg 14%
17:00 +37°C° 0 mm 5 mps 697 mmHg 14%
18:00 +37°C° 0 mm 5 mps 697 mmHg 15%
19:00 +34°C° 0 mm 4 mps 697 mmHg 17%
20:00 +31°C° 0 mm 3 mps 697 mmHg 20%
21:00 +28°C° 0 mm 2 mps 697 mmHg 22%
22:00 +28°C° 0 mm 2 mps 697 mmHg 24%
23:00 +27°C° 0 mm 2 mps 697 mmHg 26%

6 Agosto, Viernes

Tiempo Temperatura Precipitaciones Viento Presión Humedad
00:00 +26°C° 0 mm 2 mps 696 mmHg 28%
01:00 +25°C° 0 mm 1 mps 696 mmHg 30%
02:00 +25°C° 0 mm 1 mps 696 mmHg 32%
03:00 +24°C° 0 mm 1 mps 695 mmHg 34%
04:00 +24°C° 0 mm 1 mps 695 mmHg 34%
05:00 +24°C° 0 mm 1 mps 695 mmHg 35%
06:00 +24°C° 0 mm 1 mps 695 mmHg 35%
07:00 +27°C° 0 mm 1 mps 696 mmHg 30%
08:00 +29°C° 0 mm 1 mps 696 mmHg 26%
09:00 +32°C° 0 mm 1 mps 696 mmHg 21%
10:00 +35°C° 0 mm 2 mps 696 mmHg 19%
11:00 +36°C° 0 mm 3 mps 696 mmHg 17%
12:00 +38°C° 0 mm 4 mps 696 mmHg 15%
13:00 +39°C° 0 mm 5 mps 695 mmHg 14%
14:00 +40°C° 0 mm 5 mps 695 mmHg 13%
15:00 +40°C° 0 mm 6 mps 695 mmHg 12%
16:00 +39°C° 0 mm 6 mps 694 mmHg 14%
17:00 +38°C° 0 mm 6 mps 694 mmHg 16%
18:00 +36°C° 0 mm 6 mps 694 mmHg 18%
19:00 +34°C° 0 mm 5 mps 694 mmHg 20%
20:00 +30°C° 0 mm 4 mps 694 mmHg 23%
21:00 +28°C° 0 mm 3 mps 694 mmHg 25%
22:00 +27°C° 0 mm 2 mps 694 mmHg 25%
23:00 +26°C° 0 mm 2 mps 694 mmHg 24%

7 Agosto, Sábado

Tiempo Temperatura Precipitaciones Viento Presión Humedad
00:00 +25°C° 0 mm 2 mps 694 mmHg 24%
01:00 +24°C° 0 mm 2 mps 693 mmHg 27%
02:00 +23°C° 0 mm 2 mps 693 mmHg 29%
03:00 +22°C° 0 mm 1 mps 693 mmHg 32%
04:00 +22°C° 0 mm 1 mps 693 mmHg 33%
05:00 +22°C° 0 mm 1 mps 693 mmHg 35%
06:00 +22°C° 0 mm 1 mps 693 mmHg 36%
07:00 +24°C° 0 mm 2 mps 694 mmHg 32%
08:00 +25°C° 0 mm 2 mps 694 mmHg 29%
09:00 +27°C° 0 mm 2 mps 694 mmHg 25%
10:00 +29°C° 0 mm 3 mps 694 mmHg 22%
11:00 +31°C° 0 mm 3 mps 695 mmHg 20%
12:00 +33°C° 0 mm 4 mps 695 mmHg 17%
13:00 +34°C° 0 mm 4 mps 695 mmHg 16%
14:00 +35°C° 0 mm 5 mps 695 mmHg 15%
15:00 +35°C° 0 mm 5 mps 694 mmHg 14%
16:00 +34°C° 0 mm 5 mps 695 mmHg 14%
17:00 +33°C° 0 mm 4 mps 695 mmHg 14%
18:00 +33°C° 0 mm 4 mps 695 mmHg 15%
19:00 +29°C° 0 mm 3 mps 695 mmHg 17%
20:00 +27°C° 0 mm 2 mps 695 mmHg 20%
21:00 +25°C° 0 mm 1 mps 695 mmHg 23%
22:00 +24°C° 0 mm 1 mps 695 mmHg 24%
23:00 +23°C° 0 mm 1 mps 695 mmHg 25%

8 Agosto, Domingo

Tiempo Temperatura Precipitaciones Viento Presión Humedad
00:00 +21°C° 0 mm 0 mps 695 mmHg 26%
01:00 +22°C° 0 mm 1 mps 695 mmHg 27%
02:00 +22°C° 0 mm 1 mps 695 mmHg 28%
03:00 +22°C° 0 mm 1 mps 695 mmHg 29%
04:00 +21°C° 0 mm 2 mps 695 mmHg 32%
05:00 +21°C° 0 mm 2 mps 696 mmHg 35%
06:00 +21°C° 0 mm 2 mps 696 mmHg 38%
07:00 +24°C° 0 mm 3 mps 697 mmHg 38%
08:00 +26°C° 0 mm 4 mps 697 mmHg 38%
09:00 +28°C° 0 mm 5 mps 698 mmHg 38%
10:00 +30°C° 0 mm 5 mps 698 mmHg 35%
11:00 +33°C° 0 mm 5 mps 698 mmHg 32%
12:00 +34°C° 0 mm 5 mps 698 mmHg 30%
13:00 +35°C° 0 mm 6 mps 698 mmHg 30%
14:00 +35°C° 0 mm 6 mps 698 mmHg 31%
15:00 +35°C° 0 mm 6 mps 698 mmHg 32%
16:00 +34°C° 0 mm 6 mps 698 mmHg 34%
17:00 +33°C° 0 mm 6 mps 698 mmHg 37%
18:00 +32°C° 0 mm 5 mps 698 mmHg 40%
19:00 +29°C° 0 mm 4 mps 698 mmHg 48%
20:00 +27°C° 0 mm 3 mps 698 mmHg 56%
21:00 +25°C° 0 mm 2 mps 699 mmHg 65%
22:00 +24°C° 0 mm 2 mps 699 mmHg 69%
23:00 +23°C° 0 mm 2 mps 699 mmHg 73%
Mostrar más

Necesitamos Su Consentimiento

Meteoprog y nuestros Proveedores de Servicios pueden almacenar y acceder a sus datos personales como cookies, identificadores de dispositivo u otras tecnologías similares de su dispositivo y procesar dichos datos para personalizar contenido y anuncios, además de ofrecer funciones de redes sociales y analizar el tráfico.

  • Almacenar y/o acceder a información en su dispositivo

    Se puede almacenar o acceder a cookies, identificadores de dispositivo u otra información de su dispositivo para los fines anteriormente indicados.

  • Anuncios y contenido personalizados, medición de anuncios y contenido, percepciones del público, y desarrollo de productos

    Los anuncios y el contenido pueden personalizarse en base a su perfil. Se pueden añadir más datos para personalizar mejor los anuncios y contenidos. Se puede medir el rendimiento de los anuncios y contenidos. Se puede obtener la percepción sobre el público que ha visto los anuncios y contenidos. Dichos datos pueden usarse para desarrollar o mejorar la experiencia del usuario, sistemas y software.

Al hacer clic en ‘Estoy De Acuerdo’ usted permitirá el uso de las cookies, identificadores de dispositivo, balizas web u otras tecnologías similares indicadas. Su configuración puede cambiarse desde el navegador de su dispositivo.

Para ciertos fines, los intereses legítimos pueden ser considerados por encima del consentimiento. Puede leer más sobre ello en nuestra Política de Privacidad y Cookies.